Location: Praha
(50.0830°N, 14.4670°E)
Time: 05:56:39
(UTC+02:00)

ISS - Pass Details

Date: 28 March 2020
Orbit: 417 x 423 km, 51.6° (Epoch: 29 March)

Event Time Altitude Azimuth Distance (km) Brightness Sun altitude
Rises 21:30:36 0° 287° (WNW) 2,363 1.0 -26.8°
Reaches altitude 10° 21:32:44 10° 282° (WNW) 1,498 -0.3 -27.1°
Enters shadow 21:33:40 17° 276° (W) 1,144 -1.0 -27.2°
